Location: ??
(34.7707°N, 135.6540°E)
Time: 05:48:31
(UTC+00:00)

Cosmos 1378 Rocket - Pass Details

Date: 09 April 2020
Orbit: 600 x 628 km, 82.5° (Epoch: 05 June)

Event Time Altitude Azimuth Distance (km) Brightness Sun altitude
Exits shadow 18:47:12 26° 173° (S) 1,207 4.8 -21.3°
Maximum altitude 18:49:35 70° 94° (E) 651 3.7 -20.8°
Drops below altitude 10° 18:53:56 10° 12° (NNE) 1,979 6.6 -20.0°
Sets 18:56:11 0° 10° (N) 2,893 7.5 -19.6°
